QPF
0.03 0.03 0.03 0.03 0.05 0.05 0.04 0.04 0.04 0.03 0.03 0.02 0.01 0.02 0.02 0.02 0.02 0.02 0.03 0.05 0.05 0.04 0.04 0.03 0.03 0.02 0.01 0.01 0.01 0.02 0.03 0.02 0.01 0.01 0.01 0.00 0.00 0.00
0.04 0.03 0.03 0.03 0.03 0.04 0.05 0.05 0.04 0.03 0.03 0.02 0.02 0.02 0.03 0.03 0.03 0.02 0.02 0.03 0.03 0.04 0.05 0.04 0.03 0.02 0.02 0.01 0.01 0.02 0.03 0.03 0.02 0.01 0.01 0.01 0.01 0.00
0.05 0.04 0.04 0.03 0.03 0.04 0.04 0.05 0.05 0.04 0.03 0.02 0.02 0.02 0.03 0.03 0.03 0.03 0.03 0.02 0.02 0.02 0.03 0.04 0.03 0.03 0.02 0.02 0.02 0.03 0.03 0.02 0.02 0.01 0.01 0.01 0.01 0.01
0.05 0.05 0.04 0.03 0.03 0.03 0.03 0.04 0.05 0.04 0.03 0.02 0.02 0.02 0.02 0.03 0.03 0.03 0.03 0.02 0.02 0.02 0.02 0.02 0.02 0.02 0.02 0.02 0.03 0.04 0.04 0.03 0.02 0.02 0.01 0.01 0.01 0.01
0.07 0.07 0.06 0.05 0.04 0.03 0.03 0.03 0.03 0.04 0.04 0.03 0.02 0.02 0.03 0.03 0.04 0.04 0.03 0.03 0.02 0.02 0.02 0.02 0.02 0.02 0.01 0.01 0.02 0.03 0.04 0.04 0.03 0.02 0.02 0.01 0.01 0.01
0.09 0.08 0.07 0.08 0.07 0.06 0.05 0.05 0.04 0.04 0.04 0.03 0.03 0.02 0.03 0.03 0.04 0.05 0.04 0.04 0.03 0.02 0.02 0.02 0.02 0.02 0.02 0.02 0.02 0.02 0.03 0.04 0.04 0.03 0.02 0.02 0.01 0.01
0.10 0.09 0.08 0.08 0.07 0.07 0.07 0.06 0.06 0.06 0.05 0.04 0.04 0.03 0.03 0.04 0.05 0.05 0.05 0.04 0.04 0.03 0.02 0.02 0.02 0.02 0.02 0.02 0.02 0.02 0.02 0.03 0.04 0.04 0.03 0.02 0.02 0.02
0.10 0.10 0.10 0.10 0.09 0.08 0.07 0.06 0.05 0.05 0.06 0.05 0.04 0.04 0.03 0.03 0.04 0.05 0.06 0.05 0.05 0.04 0.03 0.02 0.02 0.02 0.01 0.01 0.02 0.03 0.03 0.03 0.03 0.03 0.04 0.03 0.02 0.02
0.09 0.09 0.09 0.08 0.07 0.06 0.06 0.05 0.05 0.04 0.04 0.03 0.03 0.03 0.03 0.03 0.04 0.05 0.06 0.06 0.05 0.04 0.04 0.04 0.04 0.03 0.02 0.02 0.02 0.03 0.03 0.04 0.03 0.03 0.03 0.03 0.02 0.01
0.09 0.08 0.08 0.08 0.07 0.06 0.05 0.04 0.04 0.04 0.03 0.02 0.02 0.02 0.02 0.03 0.04 0.05 0.06 0.07 0.07 0.07 0.06 0.06 0.05 0.05 0.04 0.03 0.03 0.03 0.03 0.04 0.03 0.03 0.03 0.02 0.02 0.01
0.10 0.09 0.08 0.07 0.07 0.07 0.05 0.04 0.04 0.03 0.03 0.03 0.03 0.03 0.03 0.03 0.04 0.05 0.05 0.06 0.07 0.07 0.07 0.06 0.06 0.05 0.05 0.04 0.04 0.04 0.04 0.04 0.03 0.03 0.03 0.03 0.02 0.02
0.08 0.08 0.10 0.09 0.07 0.05 0.04 0.04 0.04 0.03 0.03 0.03 0.03 0.03 0.03 0.03 0.04 0.04 0.04 0.04 0.05 0.06 0.06 0.06 0.05 0.05 0.05 0.04 0.04 0.04 0.04 0.04 0.04 0.04 0.03 0.03 0.02 0.02
0.07 0.06 0.07 0.09 0.08 0.06 0.05 0.04 0.03 0.03 0.02 0.03 0.04 0.04 0.04 0.04 0.05 0.05 0.05 0.04 0.04 0.04 0.04 0.04 0.04 0.04 0.04 0.04 0.03 0.03 0.03 0.03 0.03 0.03 0.03 0.03 0.03 0.02
0.06 0.06 0.06 0.07 0.07 0.07 0.06 0.05 0.05 0.04 0.04 0.04 0.05 0.05 0.05 0.06 0.06 0.06 0.06 0.05 0.05 0.04 0.04 0.04 0.04 0.04 0.04 0.03 0.03 0.03 0.03 0.03 0.02 0.02 0.03 0.03 0.03 0.03
0.06 0.06 0.06 0.06 0.06 0.06 0.07 0.07 0.06 0.05 0.05 0.05 0.05 0.04 0.04 0.05 0.05 0.06 0.07 0.06 0.06 0.07 0.06 0.05 0.04 0.04 0.04 0.04 0.03 0.03 0.02 0.02 0.02 0.02 0.02 0.03 0.03 0.03
0.06 0.06 0.06 0.05 0.05 0.06 0.07 0.07 0.06 0.05 0.06 0.05 0.05 0.04 0.04 0.05 0.05 0.05 0.06 0.06 0.06 0.07 0.07 0.06 0.04 0.04 0.03 0.03 0.03 0.03 0.02 0.02 0.02 0.02 0.02 0.02 0.03 0.03
0.07 0.07 0.06 0.05 0.05 0.04 0.04 0.05 0.05 0.06 0.06 0.05 0.05 0.05 0.05 0.05 0.05 0.05 0.05 0.06 0.06 0.05 0.05 0.05 0.05 0.04 0.03 0.03 0.03 0.02 0.02 0.02 0.02 0.02 0.02 0.02 0.02 0.02
0.05 0.05 0.05 0.04 0.03 0.03 0.03 0.03 0.03 0.04 0.05 0.05 0.05 0.04 0.04 0.05 0.05 0.05 0.05 0.05 0.05 0.05 0.05 0.05 0.05 0.04 0.03 0.03 0.03 0.02 0.02 0.02 0.02 0.02 0.02 0.02 0.02 0.01
0.05 0.04 0.03 0.03 0.02 0.02 0.02 0.02 0.02 0.02 0.03 0.04 0.05 0.04 0.04 0.04 0.04 0.04 0.05 0.05 0.05 0.05 0.05 0.04 0.04 0.05 0.04 0.03 0.03 0.02 0.02 0.02 0.02 0.02 0.02 0.02 0.01 0.01
0.05 0.04 0.04 0.03 0.03 0.03 0.02 0.03 0.03 0.02 0.03 0.03 0.04 0.04 0.04 0.04 0.04 0.04 0.04 0.04 0.04 0.04 0.04 0.04 0.04 0.04 0.04 0.03 0.03 0.03 0.03 0.02 0.02 0.02 0.02 0.02 0.02 0.01
0.04 0.04 0.04 0.04 0.03 0.04 0.03 0.03 0.03 0.03 0.03 0.03 0.03 0.03 0.03 0.04 0.04 0.04 0.04 0.04 0.04 0.04 0.04 0.03 0.03 0.04 0.04 0.04 0.04 0.03 0.03 0.02 0.02 0.02 0.02 0.02 0.02 0.02
0.04 0.04 0.03 0.03 0.04 0.04 0.04 0.04 0.04 0.04 0.04 0.04 0.04 0.04 0.03 0.03 0.03 0.03 0.04 0.04 0.04 0.04 0.03 0.03 0.03 0.04 0.04 0.05 0.04 0.03 0.03 0.02 0.03 0.03 0.03 0.02 0.02 0.02
0.04 0.03 0.03 0.03 0.04 0.05 0.04 0.04 0.04 0.04 0.04 0.04 0.04 0.04 0.04 0.04 0.04 0.04 0.04 0.04 0.04 0.04 0.04 0.04 0.04 0.04 0.04 0.04 0.04 0.04 0.03 0.03 0.03 0.03 0.03 0.02 0.02 0.01
MSLP
1012.75 1013.58 1014.39 1015.21 1016.03 1016.89 1017.75 1018.62 1019.47 1020.29 1021.07 1021.81 1022.50 1023.16 1023.78 1024.39 1024.97 1025.53 1026.07 1026.58 1027.06 1027.51 1027.94 1028.37 1028.79 1029.23 1029.69 1030.16 1030.63 1031.10 1031.54 1031.95 1032.31 1032.61 1032.86 1033.05 1033.20 1033.32
1012.17 1012.99 1013.80 1014.61 1015.43 1016.26 1017.12 1017.98 1018.82 1019.65 1020.44 1021.20 1021.91 1022.59 1023.23 1023.85 1024.43 1025.00 1025.53 1026.04 1026.52 1026.98 1027.42 1027.85 1028.28 1028.71 1029.15 1029.60 1030.05 1030.50 1030.94 1031.34 1031.71 1032.05 1032.33 1032.58 1032.78 1032.96
1011.51 1012.33 1013.14 1013.94 1014.76 1015.60 1016.45 1017.30 1018.16 1019.00 1019.81 1020.58 1021.32 1022.02 1022.68 1023.30 1023.90 1024.47 1025.01 1025.53 1026.02 1026.48 1026.92 1027.35 1027.76 1028.17 1028.58 1028.98 1029.39 1029.80 1030.19 1030.58 1030.95 1031.31 1031.64 1031.94 1032.22 1032.46
1010.75 1011.55 1012.35 1013.16 1013.98 1014.82 1015.68 1016.56 1017.43 1018.29 1019.13 1019.94 1020.70 1021.42 1022.10 1022.75 1023.36 1023.94 1024.49 1025.02 1025.52 1025.99 1026.44 1026.86 1027.26 1027.63 1027.99 1028.34 1028.67 1029.01 1029.36 1029.71 1030.07 1030.44 1030.81 1031.18 1031.53 1031.86
1009.90 1010.66 1011.44 1012.24 1013.06 1013.92 1014.80 1015.70 1016.60 1017.50 1018.38 1019.22 1020.02 1020.77 1021.48 1022.14 1022.76 1023.36 1023.92 1024.47 1024.99 1025.48 1025.94 1026.36 1026.74 1027.08 1027.38 1027.66 1027.93 1028.19 1028.48 1028.78 1029.13 1029.50 1029.91 1030.34 1030.77 1031.19
1009.00 1009.70 1010.43 1011.20 1012.02 1012.89 1013.79 1014.73 1015.67 1016.62 1017.54 1018.42 1019.26 1020.04 1020.76 1021.44 1022.07 1022.68 1023.26 1023.83 1024.37 1024.89 1025.37 1025.80 1026.17 1026.49 1026.76 1026.98 1027.18 1027.37 1027.59 1027.85 1028.17 1028.55 1028.99 1029.48 1029.99 1030.50
1008.15 1008.74 1009.41 1010.14 1010.93 1011.79 1012.71 1013.67 1014.65 1015.64 1016.61 1017.53 1018.39 1019.19 1019.93 1020.62 1021.26 1021.88 1022.48 1023.06 1023.63 1024.18 1024.69 1025.14 1025.53 1025.85 1026.09 1026.28 1026.43 1026.57 1026.74 1026.96 1027.26 1027.64 1028.11 1028.65 1029.23 1029.83
1007.45 1007.91 1008.47 1009.12 1009.86 1010.70 1011.61 1012.58 1013.59 1014.61 1015.60 1016.55 1017.44 1018.25 1018.99 1019.68 1020.32 1020.94 1021.54 1022.14 1022.74 1023.33 1023.87 1024.37 1024.79 1025.13 1025.39 1025.57 1025.70 1025.81 1025.94 1026.14 1026.42 1026.81 1027.30 1027.89 1028.53 1029.20
1006.99 1007.29 1007.71 1008.25 1008.90 1009.68 1010.55 1011.51 1012.52 1013.54 1014.56 1015.52 1016.41 1017.23 1017.97 1018.64 1019.27 1019.88 1020.49 1021.10 1021.73 1022.35 1022.95 1023.50 1023.97 1024.36 1024.65 1024.85 1024.99 1025.11 1025.24 1025.42 1025.70 1026.09 1026.60 1027.22 1027.91 1028.64
1006.81 1006.93 1007.18 1007.57 1008.10 1008.78 1009.58 1010.49 1011.47 1012.49 1013.49 1014.45 1015.34 1016.15 1016.88 1017.54 1018.16 1018.77 1019.37 1020.00 1020.64 1021.30 1021.95 1022.56 1023.10 1023.55 1023.90 1024.16 1024.34 1024.48 1024.62 1024.82 1025.10 1025.50 1026.02 1026.65 1027.37 1028.14
1006.90 1006.81 1006.87 1007.08 1007.46 1008.01 1008.71 1009.54 1010.46 1011.43 1012.41 1013.36 1014.25 1015.06 1015.78 1016.44 1017.05 1017.65 1018.26 1018.90 1019.57 1020.26 1020.95 1021.62 1022.23 1022.76 1023.18 1023.50 1023.74 1023.93 1024.11 1024.33 1024.62 1025.02 1025.55 1026.19 1026.92 1027.70
1007.17 1006.88 1006.73 1006.75 1006.95 1007.33 1007.90 1008.61 1009.45 1010.37 1011.31 1012.25 1013.13 1013.94 1014.68 1015.35 1015.98 1016.59 1017.22 1017.87 1018.56 1019.29 1020.03 1020.75 1021.42 1022.02 1022.52 1022.91 1023.22 1023.46 1023.69 1023.94 1024.25 1024.66 1025.19 1025.82 1026.55 1027.34
1007.54 1007.05 1006.70 1006.51 1006.50 1006.70 1007.11 1007.69 1008.42 1009.26 1010.17 1011.08 1011.97 1012.81 1013.58 1014.29 1014.96 1015.61 1016.27 1016.95 1017.67 1018.43 1019.21 1019.98 1020.70 1021.36 1021.93 1022.40 1022.77 1023.08 1023.35 1023.64 1023.98 1024.40 1024.92 1025.54 1026.26 1027.03
1007.92 1007.25 1006.70 1006.30 1006.09 1006.09 1006.31 1006.74 1007.35 1008.11 1008.96 1009.86 1010.76 1011.64 1012.47 1013.24 1013.98 1014.69 1015.40 1016.13 1016.90 1017.69 1018.50 1019.31 1020.08 1020.79 1021.42 1021.95 1022.39 1022.76 1023.09 1023.42 1023.78 1024.21 1024.72 1025.33 1026.03 1026.78
1008.29 1007.45 1006.72 1006.12 1005.70 1005.50 1005.53 1005.79 1006.26 1006.91 1007.70 1008.58 1009.50 1010.42 1011.32 1012.18 1013.00 1013.79 1014.58 1015.38 1016.19 1017.03 1017.87 1018.72 1019.53 1020.28 1020.96 1021.56 1022.06 1022.49 1022.88 1023.25 1023.64 1024.08 1024.60 1025.19 1025.86 1026.58
1008.64 1007.67 1006.78 1006.00 1005.39 1004.99 1004.82 1004.90 1005.21 1005.74 1006.44 1007.28 1008.20 1009.16 1010.12 1011.06 1011.98 1012.87 1013.75 1014.62 1015.50 1016.38 1017.27 1018.15 1019.00 1019.80 1020.54 1021.19 1021.76 1022.26 1022.71 1023.14 1023.56 1024.02 1024.54 1025.11 1025.75 1026.44
1009.04 1007.98 1006.96 1006.03 1005.24 1004.64 1004.27 1004.15 1004.29 1004.66 1005.26 1006.02 1006.91 1007.88 1008.89 1009.90 1010.90 1011.88 1012.85 1013.80 1014.74 1015.69 1016.63 1017.55 1018.46 1019.31 1020.11 1020.84 1021.49 1022.06 1022.59 1023.07 1023.55 1024.03 1024.55 1025.10 1025.71 1026.34
1009.56 1008.45 1007.34 1006.29 1005.34 1004.56 1004.00 1003.67 1003.61 1003.81 1004.25 1004.90 1005.72 1006.66 1007.67 1008.71 1009.77 1010.82 1011.86 1012.88 1013.90 1014.90 1015.91 1016.90 1017.86 1018.79 1019.67 1020.48 1021.22 1021.89 1022.50 1023.06 1023.59 1024.11 1024.63 1025.17 1025.73 1026.31
1010.27 1009.15 1007.99 1006.85 1005.77 1004.83 1004.07 1003.54 1003.28 1003.27 1003.53 1004.02 1004.71 1005.57 1006.53 1007.56 1008.63 1009.71 1010.80 1011.88 1012.96 1014.04 1015.11 1016.17 1017.22 1018.23 1019.21 1020.12 1020.97 1021.75 1022.46 1023.10 1023.70 1024.25 1024.78 1025.30 1025.82 1026.33
1011.17 1010.06 1008.89 1007.69 1006.52 1005.45 1004.52 1003.80 1003.31 1003.09 1003.14 1003.43 1003.96 1004.68 1005.54 1006.51 1007.54 1008.63 1009.73 1010.85 1011.98 1013.12 1014.26 1015.41 1016.54 1017.66 1018.74 1019.78 1020.75 1021.64 1022.46 1023.19 1023.85 1024.45 1024.99 1025.49 1025.96 1026.41
1012.19 1011.13 1009.98 1008.76 1007.53 1006.35 1005.28 1004.38 1003.69 1003.25 1003.08 1003.16 1003.49 1004.04 1004.76 1005.63 1006.59 1007.63 1008.73 1009.86 1011.03 1012.22 1013.43 1014.65 1015.88 1017.10 1018.30 1019.45 1020.54 1021.55 1022.47 1023.30 1024.02 1024.66 1025.22 1025.71 1026.14 1026.52
1013.24 1012.24 1011.12 1009.90 1008.65 1007.40 1006.22 1005.18 1004.32 1003.68 1003.30 1003.17 1003.30 1003.66 1004.23 1004.96 1005.83 1006.80 1007.86 1008.98 1010.16 1011.39 1012.65 1013.95 1015.26 1016.57 1017.87 1019.13 1020.33 1021.44 1022.46 1023.37 1024.17 1024.85 1025.43 1025.91 1026.30 1026.64
1014.17 1013.23 1012.15 1010.97 1009.71 1008.43 1007.18 1006.04 1005.05 1004.25 1003.69 1003.38 1003.33 1003.51 1003.92 1004.51 1005.27 1006.16 1007.16 1008.26 1009.43 1010.67 1011.97 1013.31 1014.69 1016.07 1017.45 1018.79 1020.08 1021.28 1022.38 1023.36 1024.22 1024.94 1025.54 1026.03 1026.42 1026.73
Thickness
5551 5556 5560 5564 5567 5569 5572 5575 5574 5572 5574 5578 5580 5584 5586 5587 5589 5589 5590 5590 5590 5590 5590 5590 5589 5588 5586 5585 5583 5581 5579 5577 5575 5573 5572 5570 5568 5566
5541 5546 5550 5555 5559 5561 5564 5567 5570 5571 5570 5573 5575 5577 5579 5580 5581 5582 5583 5583 5583 5583 5583 5583 5582 5581 5579 5578 5576 5574 5572 5570 5568 5566 5564 5562 5560 5558
5531 5535 5541 5545 5549 5552 5555 5559 5562 5564 5564 5565 5566 5568 5570 5572 5573 5574 5575 5575 5576 5576 5576 5575 5575 5574 5572 5570 5569 5567 5565 5563 5561 5559 5556 5554 5552 5550
5521 5525 5531 5535 5539 5543 5546 5550 5553 5556 5557 5556 5557 5559 5561 5563 5564 5566 5567 5568 5568 5568 5568 5568 5567 5566 5564 5563 5561 5559 5558 5556 5554 5551 5549 5547 5544 5541
5510 5516 5521 5525 5530 5534 5537 5541 5545 5547 5549 5549 5550 5551 5552 5554 5555 5557 5558 5559 5560 5560 5560 5560 5559 5559 5557 5556 5554 5552 5550 5549 5546 5543 5541 5538 5535 5533
5501 5506 5511 5516 5521 5525 5528 5532 5535 5537 5538 5540 5541 5542 5544 5545 5546 5547 5548 5550 5552 5552 5551 5551 5551 5550 5549 5548 5547 5545 5543 5540 5538 5535 5533 5530 5527 5524
5491 5496 5501 5507 5511 5515 5519 5523 5526 5528 5530 5531 5532 5534 5535 5536 5539 5540 5540 5541 5543 5543 5543 5543 5543 5542 5541 5540 5538 5536 5534 5532 5530 5527 5524 5521 5518 5515
5479 5485 5491 5496 5500 5504 5509 5513 5517 5520 5522 5523 5524 5527 5529 5531 5532 5532 5532 5532 5533 5536 5534 5534 5534 5533 5533 5532 5530 5528 5526 5523 5520 5518 5515 5512 5509 5506
5468 5474 5480 5486 5489 5493 5497 5502 5506 5511 5514 5517 5518 5520 5521 5524 5524 5523 5523 5524 5526 5527 5524 5523 5524 5524 5525 5523 5521 5519 5517 5514 5511 5508 5505 5502 5499 5496
5457 5463 5469 5474 5478 5482 5486 5490 5494 5498 5504 5507 5510 5512 5513 5513 5515 5516 5515 5514 5514 5514 5514 5513 5514 5513 5514 5513 5511 5509 5506 5504 5501 5497 5494 5491 5488 5484
5444 5450 5457 5463 5467 5471 5473 5478 5481 5485 5490 5494 5498 5500 5502 5503 5503 5502 5502 5502 5503 5502 5502 5502 5502 5501 5501 5500 5499 5497 5495 5492 5489 5487 5484 5480 5477 5473
5432 5439 5445 5451 5455 5458 5461 5465 5469 5474 5477 5481 5484 5487 5488 5490 5491 5492 5494 5493 5493 5492 5493 5490 5489 5487 5485 5487 5486 5484 5482 5480 5477 5474 5472 5469 5465 5461
5419 5425 5431 5437 5442 5446 5450 5454 5459 5462 5464 5468 5471 5473 5474 5476 5478 5480 5482 5483 5483 5483 5483 5480 5477 5475 5473 5472 5472 5471 5469 5467 5464 5462 5459 5456 5453 5450
5405 5411 5417 5422 5427 5432 5436 5442 5445 5448 5451 5454 5457 5459 5461 5463 5465 5467 5469 5470 5471 5472 5471 5469 5467 5465 5462 5459 5458 5457 5455 5453 5451 5448 5446 5443 5440 5437
5391 5397 5403 5408 5412 5417 5422 5427 5431 5434 5438 5440 5444 5445 5447 5449 5451 5453 5454 5454 5455 5456 5457 5456 5456 5454 5452 5449 5446 5444 5441 5440 5438 5435 5433 5430 5428 5425
5377 5382 5388 5392 5397 5402 5407 5412 5416 5421 5425 5428 5430 5431 5433 5434 5436 5438 5439 5440 5440 5440 5440 5441 5441 5440 5438 5436 5434 5431 5429 5427 5426 5423 5420 5417 5415 5413
5363 5367 5372 5377 5382 5387 5392 5396 5401 5405 5409 5412 5415 5417 5419 5420 5422 5424 5425 5426 5427 5427 5425 5424 5424 5424 5423 5421 5420 5419 5417 5414 5413 5410 5407 5405 5403 5400
5349 5354 5358 5362 5368 5373 5378 5382 5386 5390 5393 5397 5399 5402 5405 5407 5408 5409 5409 5411 5413 5413 5412 5411 5409 5408 5406 5406 5406 5405 5404 5402 5399 5397 5395 5392 5391 5389
5336 5340 5344 5349 5354 5359 5363 5367 5371 5375 5379 5382 5385 5387 5389 5391 5393 5394 5395 5397 5398 5399 5398 5397 5396 5395 5394 5394 5394 5392 5390 5388 5386 5384 5382 5380 5379 5378
5322 5326 5330 5335 5339 5344 5348 5352 5356 5360 5363 5367 5369 5371 5374 5376 5378 5380 5382 5383 5384 5384 5384 5383 5383 5382 5382 5381 5380 5378 5376 5374 5373 5371 5369 5367 5366 5364
5308 5312 5316 5320 5325 5329 5334 5338 5341 5344 5348 5351 5354 5356 5359 5362 5364 5366 5368 5369 5370 5370 5371 5371 5371 5369 5366 5364 5363 5364 5362 5360 5359 5357 5356 5353 5352 5351
5295 5298 5302 5307 5311 5316 5320 5324 5327 5330 5333 5336 5339 5341 5344 5347 5350 5352 5354 5356 5357 5357 5358 5357 5355 5354 5352 5351 5351 5350 5349 5347 5345 5343 5341 5341 5339 5338
5282 5286 5289 5294 5298 5302 5306 5310 5313 5317 5320 5322 5325 5328 5330 5333 5336 5338 5340 5342 5344 5344 5343 5342 5341 5340 5339 5338 5337 5335 5334 5332 5331 5329 5328 5327 5326 5326